sat.trackr.live / text

‹ back to catalog

AETHER-3

NORAD 67374 · 2026-004M

PAYLOAD ACTIVE UNKNOWN

§ Identity

Operator
Country
CA
Launch date
2026-01-11
Launch site
AFWTR
Launch vehicle
Mass (kg)
RCS (m²)

External: N2YO · Heavens-Above · Gunter

§ Orbital elements

Epoch: 2026-09-19T17:21:31.157856Z

Period
96.84 min
Inclination
97.8149°
Eccentricity
0.0003658
Mean motion
14.87026035 rev/d
Perigee alt
604.7 km
Apogee alt
609.8 km
Semi-major
6,985.4 km
B*
5.3429e-5
RAAN
259.8033°
Arg perigee
151.7714°
Mean anomaly
208.3701°
Rev number
3,735

§ Raw data

AETHER-31 67374U 26004M   26262.72327729  .00000425  00000+0  53429-4 0  99932 67374  97.8149 259.8033 0003658 151.7714 208.3701 14.87026035 37350

JSON: /api/v1/satellites/67374 · /tle

For live sub-satellite position, see the globe view (requires WebGL).

§ Visibility from observer

Set your observer location to see the next 7 days of passes ≥ 10°. The values pass through the URL so the page stays shareable.

No JS? Fill the form by hand. The geolocation button needs JavaScript.